GW5625 Weather Reports


Display with metric or nautical units.
time (UTC)temp
F
wind
direction
speed
MPH
gust
MPH
rain 1hr
in
rain 24hr
in
rain mn
in
humidity
%
barometer
mb
20260506221555 66 155 4.0 11.0 0.00 0.00 0.00 75 1013.9
20260506220004 67 145 4.0 10.0 0.00 0.00 0.00 75 1014.2
20260506214532 67 203 5.0 10.0 0.00 0.00 0.00 73 1014.4
20260506213054 67 234 4.0 12.0 0.00 0.00 0.00 74 1014.5
20260506211512 68 165 4.0 8.0 0.00 0.00 0.00 73 1014.5
20260506210039 68 181 3.0 9.0 0.00 0.00 0.00 73 1014.4
20260506204504 68 205 3.0 10.0 0.00 0.00 0.00 73 1014.6
20260506203030 68 237 3.0 7.0 0.00 0.00 0.00 72 1014.7
20260506201556 68 173 3.0 8.0 0.00 0.00 0.00 72 1014.9
20260506200037 68 168 3.0 8.0 0.00 0.00 0.00 72 1015.0
20260506194505 68 186 3.0 8.0 0.00 0.00 0.00 72 1015.0
20260506193028 68 159 3.0 7.0 0.00 0.00 0.00 73 1015.1
20260506191552 67 171 4.0 7.0 0.00 0.00 0.00 74 1015.4
20260506190042 68 168 2.0 5.0 0.00 0.00 0.00 72 1015.6
20260506184505 67 163 0.0 2.0 0.00 0.00 0.00 72 1015.6
20260506183028 66 164 1.0 5.0 0.00 0.00 0.00 73 1015.6
20260506181558 65 176 0.0 3.0 0.00 0.00 0.00 74 1015.7
20260506180051 65 178 0.0 4.0 0.00 0.00 0.00 73 1015.6
20260506174516 65 177 1.0 3.0 0.00 0.00 0.00 74 1015.6
20260506173045 64 174 1.0 3.0 0.00 0.00 0.00 75 1015.7
20260506171554 64 177 1.0 4.0 0.00 0.00 0.00 75 1015.7
20260506170048 62 169 0.0 2.0 0.00 0.00 0.00 77 1015.7
20260506164514 62 169 1.0 4.0 0.00 0.00 0.00 76 1015.6
20260506163036 62 155 0.0 2.0 0.00 0.00 0.00 79 1015.6
20260506161605 61 155 0.0 2.0 0.00 0.00 0.00 81 1015.7
20260506160045 60 153 0.0 3.0 0.00 0.00 0.00 83 1015.5
20260506154506 58 149 0.0 2.0 0.00 0.00 0.00 86 1015.6
20260506153028 58 125 0.0 3.0 0.00 0.00 0.00 87 1015.5
20260506151604 57 121 0.0 3.0 0.00 0.00 0.00 87 1015.5
20260506150039 57 17 0.0 0.0 0.00 0.00 0.00 87 1015.4
20260506144505 57 14 0.0 3.0 0.00 0.00 0.00 88 1015.4
20260506143041 56 336 2.0 3.0 0.00 0.00 0.00 89 1015.3
20260506141552 56 277 0.0 0.0 0.00 0.00 0.00 89 1015.1
20260506140007 55 277 0.0 0.0 0.00 0.00 0.00 89 1015.0
20260506134528 55 277 0.0 0.0 0.00 0.00 0.00 89 1014.8
20260506133053 55 277 0.0 0.0 0.00 0.00 0.00 89 1014.8
20260506131525 55 277 0.0 0.0 0.00 0.00 0.00 88 1014.8
20260506130058 55 277 0.0 1.0 0.00 0.00 0.00 88 1014.7
20260506124503 55 277 0.0 0.0 0.00 0.00 0.00 88 1014.5
20260506123028 55 277 0.0 0.0 0.00 0.00 0.00 87 1014.4
20260506121552 55 277 0.0 0.0 0.00 0.00 0.00 87 1014.4
20260506120048 55 277 0.0 1.0 0.00 0.00 0.00 87 1014.3
20260506114519 55 277 0.0 3.0 0.00 0.00 0.00 86 1014.2
20260506113029 55 257 0.0 2.0 0.00 0.00 0.00 87 1014.0
20260506111553 55 289 0.0 2.0 0.00 0.00 0.00 86 1014.0
20260506110036 55 346 0.0 2.0 0.00 0.00 0.00 86 1014.0
20260506104616 55 350 0.0 1.0 0.00 0.00 0.00 87 1013.9
20260506103025 55 350 0.0 0.0 0.00 0.00 0.00 87 1013.9
20260506101556 55 350 0.0 0.0 0.00 0.00 0.00 87 1013.9
20260506100035 55 350 0.0 0.0 0.00 0.01 0.00 87 1013.8
20260506094605 55 350 0.0 1.0 0.00 0.01 0.00 87 1013.9
20260506094507 55 350 0.0 1.0 0.00 0.01 0.00 86 1013.9
20260506093027 55 350 0.0 1.0 0.00 0.01 0.00 86 1013.9
20260506091552 55 350 0.0 3.0 0.00 0.01 0.00 86 1013.8
20260506084528 55 346 0.0 5.0 0.00 0.03 0.00 85 1013.8
20260506083047 55 176 1.0 3.0 0.00 0.03 0.00 85 1013.7
20260506081508 55 177 1.0 4.0 0.00 0.03 0.00 85 1014.0
20260506073027 55 194 0.0 2.0 0.00 0.09 0.03 85 1013.5
20260506071607 55 215 0.0 2.0 0.00 0.09 0.03 85 1013.4
20260506061552 55 244 1.0 4.0 0.00 0.11 0.03 85 1013.1
20260506044510 55 254 2.0 7.0 0.00 0.17 0.03 90 1012.6
20260506043031 55 171 3.0 7.0 0.00 0.17 0.03 89 1012.4
20260506041603 55 236 2.0 8.0 0.00 0.17 0.03 89 1012.2
20260506040040 55 202 3.0 10.0 0.00 0.17 0.03 91 1011.9
20260506034504 55 207 3.0 10.0 0.00 0.17 0.03 91 1011.6
20260506033031 55 224 4.0 11.0 0.00 0.17 0.03 91 1011.5
20260506031555 55 193 4.0 12.0 0.00 0.17 0.03 91 1011.3
20260506030036 55 236 4.0 12.0 0.00 0.17 0.03 91 1011.2
20260506024601 56 188 2.0 12.0 0.00 0.17 0.03 90 1011.1
20260506024501 56 216 4.0 12.0 0.00 0.17 0.03 90 1011.1
20260506023026 56 247 3.0 11.0 0.00 0.17 0.03 90 1011.1
20260506021555 56 234 4.0 14.0 0.00 0.17 0.03 90 1010.8
20260506020034 56 258 5.0 12.0 0.00 0.17 0.03 89 1010.5
20260506014559 56 217 5.0 14.0 0.00 0.17 0.03 88 1010.5
20260506013029 57 156 5.0 13.0 0.00 0.17 0.03 87 1010.6
20260506011550 57 243 3.0 12.0 0.00 0.17 0.03 87 1010.4
20260506010041 58 234 6.0 11.0 0.00 0.17 0.03 86 1010.5
20260506004516 58 237 4.0 10.0 0.00 0.17 0.03 85 1010.3
20260506003033 59 219 4.0 9.0 0.00 0.17 0.03 84 1010.3
20260506001609 59 202 6.0 12.0 0.00 0.17 0.03 84 1010.2
20260506000040 59 234 5.0 11.0 0.00 0.17 0.03 85 1010.1
20260505234601 58 178 5.0 11.0 0.00 0.17 0.03 85 1010.1
20260505233026 58 294 5.0 11.0 0.00 0.17 0.03 85 1010.1
20260505231554 59 198 4.0 12.0 0.00 0.17 0.03 84 1010.3
20260505230046 60 213 5.0 12.0 0.00 0.17 0.03 83 1010.2
20260505224514 60 213 6.0 15.0 0.00 0.17 0.03 82 1010.2
20260505223043 61 229 4.0 10.0 0.00 0.17 0.03 82 1010.1